Date,TemperatureHighF,TemperatureAvgF,TemperatureLowF,DewpointHighF,DewpointAvgF,DewpointLowF,HumidityHigh,HumidityAvg,HumidityLow,PressureMaxIn,PressureMinIn,WindSpeedMaxMPH,WindSpeedAvgMPH,GustSpeedMaxMPH,PrecipitationSumIn
2013-3-1,71,54,33,34,25,16,77,39,15,30.31,30.10,11,3,16,0.00
2013-3-2,67,53,40,31,28,26,62,41,24,30.44,30.26,14,4,17,0.00
2013-3-3,77,59,35,46,34,24,67,42,21,30.28,29.95,17,6,21,0.00
2013-3-4,88,68,52,57,50,42,91,59,21,29.95,29.70,13,5,18,0.00
2013-3-5,68,58,42,57,32,16,95,43,16,30.35,29.76,25,8,34,0.00
2013-3-6,64,50,35,35,21,15,56,33,15,30.46,30.23,14,4,17,0.00
2013-3-7,73,58,40,57,49,35,90,72,50,30.24,30.08,15,5,19,0.00
2013-3-8,71,65,61,66,61,55,94,87,79,30.12,29.96,15,6,22,0.02
2013-3-9,78,69,64,68,65,61,96,86,70,29.99,29.60,19,8,31,0.03
2013-3-10,71,63,51,65,44,33,95,53,26,30.13,29.62,20,7,25,0.06
2013-3-11,71,55,40,34,29,24,71,41,19,30.20,30.00,12,4,17,0.00
2013-3-12,80,62,40,44,32,26,60,37,15,30.21,30.06,11,4,18,0.00
2013-3-13,77,61,43,50,41,38,88,53,27,30.43,30.22,10,4,15,0.00
2013-3-14,79,63,43,57,49,42,95,65,30,30.39,30.20,13,5,17,0.00
2013-3-15,82,67,51,57,51,42,96,63,25,30.23,29.98,13,6,19,0.00
2013-3-16,86,69,58,63,59,54,94,74,34,29.98,29.72,16,8,22,0.00
2013-3-17,88,74,66,67,63,59,93,73,38,29.79,29.61,13,5,18,0.00
2013-3-18,96,75,62,67,55,22,97,63,7,29.90,29.69,17,5,22,0.00
2013-3-19,79,68,54,66,58,47,87,70,57,29.97,29.79,13,5,15,0.00
2013-3-20,74,64,57,65,50,41,89,63,32,30.20,29.94,20,8,27,0.00
2013-3-21,77,66,54,63,55,43,91,70,57,30.00,29.62,15,6,20,0.00
2013-3-22,88,74,65,69,66,62,96,78,43,29.71,29.58,11,4,17,0.00
2013-3-23,83,67,55,68,58,51,91,73,51,29.75,29.56,14,6,16,0.00
2013-3-24,67,56,42,59,31,20,90,44,19,30.16,29.68,21,8,27,0.00
2013-3-25,61,48,35,28,20,7,70,37,12,30.39,30.16,19,6,26,0.00
2013-3-26,68,52,35,32,22,18,63,36,15,30.51,30.29,10,4,13,0.00
2013-3-27,70,58,42,53,42,32,74,57,44,30.32,30.16,11,5,18,0.00
2013-3-28,72,65,60,60,58,53,87,76,65,30.20,30.11,12,5,17,0.00
2013-3-29,79,69,59,63,60,57,95,75,48,30.16,30.02,13,5,18,0.00
2013-3-30,86,73,65,66,64,61,92,74,43,30.08,29.86,12,6,18,0.00
2013-3-31,83,71,62,66,64,60,95,81,56,29.94,29.81,21,4,24,0.01